GW5538 Weather Reports


time (UTC)temp
C
wind
direction
speed
KPH
gust
KPH
rain 1hr
cm
rain 24hr
cm
rain mn
cm
humidity
%
barometer
mb
20260508131831 7 62 6.4 12.9 0.00 0.08 0.08 89 1017.3
20260508131327 7 98 12.9 17.7 0.00 0.08 0.08 89 1017.2
20260508130824 7 45 11.3 17.7 0.00 0.08 0.08 89 1017.2
20260508130321 7 81 12.9 17.7 0.18 0.08 0.08 89 1017.2
20260508125817 7 44 9.7 17.7 0.18 0.08 0.08 89 1017.4
20260508125313 7 47 9.7 25.7 0.00 0.05 0.05 89 1017.4
20260508124811 7 64 6.4 16.1 0.00 0.05 0.05 89 1017.4
20260508124308 7 73 6.4 12.9 0.00 0.05 0.05 89 1017.4
20260508123806 7 67 9.7 17.7 0.00 0.05 0.05 88 1017.4
20260508123304 7 359 9.7 20.9 0.00 0.05 0.05 88 1017.5
20260508122800 7 58 12.9 16.1 0.18 0.05 0.05 88 1017.6
20260508122257 7 45 17.7 22.5 0.18 0.05 0.05 88 1017.6
20260508121754 7 70 6.4 17.7 0.00 0.03 0.03 88 1017.6
20260508121253 7 58 14.5 22.5 0.00 0.03 0.03 87 1017.6
20260508120749 7 40 11.3 20.9 0.00 0.03 0.03 87 1017.6
20260508120248 7 39 11.3 17.7 0.00 0.03 0.03 87 1017.8
20260508115745 7 58 11.3 24.1 0.00 0.03 0.03 86 1017.8
20260508115242 7 22 11.3 22.5 0.13 0.03 0.03 86 1017.8
20260508114733 7 79 6.4 24.1 0.13 0.03 0.03 86 1017.9
20260508114230 7 51 6.4 16.1 0.00 0.00 0.00 85 1017.8
20260508113727 7 48 12.9 24.1 0.00 0.00 0.00 85 1017.7
20260508113225 7 62 12.9 24.1 0.00 0.00 0.00 84 1017.6
20260508112720 7 51 8.0 14.5 0.00 0.00 0.00 84 1017.6
20260508112218 7 34 14.5 17.7 0.00 0.00 0.00 84 1017.8
20260508111714 7 77 6.4 17.7 0.00 0.00 0.00 84 1017.6
20260508111212 7 54 11.3 24.1 0.00 0.00 0.00 84 1017.5
20260508110709 7 46 6.4 25.7 0.00 0.00 0.00 83 1017.5
20260508110206 7 36 8.0 16.1 0.00 0.00 0.00 84 1017.5
20260508105706 7 37 4.8 16.1 0.00 0.00 0.00 84 1017.4
20260508105203 7 64 4.8 16.1 0.00 0.00 0.00 84 1017.3
20260508104700 7 42 12.9 20.9 0.00 0.00 0.00 84 1017.2
20260508104157 7 67 9.7 25.7 0.00 0.00 0.00 84 1017.3
20260508103654 7 65 12.9 24.1 0.00 0.00 0.00 86 1017.2
20260508103151 7 58 8.0 14.5 0.00 0.00 0.00 88 1017.0
20260508102649 7 69 6.4 11.3 0.00 0.00 0.00 88 1017.3
20260508102147 7 41 9.7 17.7 0.00 0.00 0.00 87 1017.5
20260508101643 7 71 11.3 17.7 0.00 0.00 0.00 86 1017.2
20260508101141 7 36 6.4 11.3 0.00 0.00 0.00 85 1017.1
20260508100638 7 43 8.0 14.5 0.00 0.00 0.00 85 1017.2
20260508100137 7 73 12.9 14.5 0.00 0.00 0.00 85 1017.1
20260508095633 7 44 3.2 14.5 0.00 0.00 0.00 86 1017.0
20260508095130 7 58 14.5 20.9 0.00 0.00 0.00 86 1017.0
20260508094627 7 29 6.4 16.1 0.00 0.00 0.00 86 1017.1
20260508094123 7 69 12.9 17.7 0.00 0.00 0.00 86 1017.1
20260508093621 7 85 11.3 20.9 0.00 0.00 0.00 86 1017.1
20260508093118 7 54 8.0 16.1 0.00 0.00 0.00 86 1017.1
20260508092615 7 36 8.0 16.1 0.00 0.00 0.00 86 1017.2
20260508092114 7 77 8.0 16.1 0.00 0.00 0.00 86 1017.2
20260508091611 7 50 14.5 22.5 0.00 0.00 0.00 86 1017.1
20260508091108 7 60 20.9 27.4 0.00 0.00 0.00 86 1017.0
20260508090606 7 89 11.3 22.5 0.00 0.00 0.00 87 1016.9
20260508090103 7 54 6.4 22.5 0.00 0.00 0.00 87 1017.0
20260508085559 7 70 11.3 16.1 0.00 0.00 0.00 88 1017.1
20260508085056 7 43 12.9 22.5 0.00 0.00 0.00 88 1017.0
20260508084552 7 53 8.0 17.7 0.00 0.00 0.00 88 1017.0
20260508084050 6 72 8.0 24.1 0.00 0.00 0.00 88 1017.0
20260508083547 6 58 11.3 17.7 0.00 0.00 0.00 88 1016.8
20260508083043 6 43 12.9 22.5 0.00 0.00 0.00 88 1017.0
20260508082539 6 73 14.5 22.5 0.00 0.00 0.00 88 1016.9
20260508082037 6 48 8.0 20.9 0.00 0.00 0.00 88 1016.9
20260508081534 7 19 6.4 16.1 0.00 0.00 0.00 88 1017.0
20260508081030 7 66 8.0 17.7 0.00 0.00 0.00 88 1016.8
20260508080528 7 52 9.7 24.1 0.00 0.00 0.00 88 1017.0
20260508080025 7 64 4.8 22.5 0.00 0.00 0.00 88 1016.9
20260508075522 7 75 6.4 12.9 0.00 0.00 0.00 88 1016.7
20260508075019 7 65 4.8 14.5 0.00 0.00 0.00 88 1016.6
20260508074517 7 33 6.4 16.1 0.00 0.00 0.00 88 1016.8
20260508074013 6 92 9.7 14.5 0.00 0.00 0.00 88 1016.9
20260508073511 6 59 9.7 16.1 0.00 0.00 0.00 88 1016.4
20260508073008 6 31 11.3 16.1 0.00 0.00 0.00 89 1016.7
20260508072504 6 62 12.9 20.9 0.00 0.00 0.00 88 1016.5
20260508072001 6 78 6.4 11.3 0.00 0.00 0.00 89 1016.7
20260508071459 6 56 6.4 17.7 0.00 0.00 0.00 88 1016.4
20260508070956 6 61 6.4 24.1 0.00 0.00 0.00 89 1016.4
20260508070454 6 74 12.9 16.1 0.00 0.00 0.00 89 1016.5
20260508065952 6 88 9.7 16.1 0.00 0.00 0.00 89 1016.4
20260508065450 7 69 3.2 12.9 0.00 0.00 0.00 89 1016.6
20260508064948 7 49 11.3 14.5 0.00 0.00 0.00 89 1016.4
20260508064445 6 50 9.7 14.5 0.00 0.00 0.00 89 1016.2
20260508063943 6 47 16.1 24.1 0.00 0.00 0.00 89 1016.2
20260508063440 7 77 8.0 12.9 0.00 0.00 0.00 89 1016.3
20260508062938 6 34 6.4 16.1 0.00 0.00 0.00 89 1016.2
20260508062435 6 78 6.4 16.1 0.00 0.00 0.00 89 1016.4
20260508061932 6 241 9.7 24.1 0.00 0.00 0.00 89 1016.1
20260508061429 6 67 14.5 37.0 0.00 0.00 0.00 90 1016.2
20260508060925 6 41 6.4 14.5 0.00 0.00 0.00 90 1016.3
20260508060423 6 81 11.3 17.7 0.00 0.00 0.00 91 1016.2
20260508055919 6 36 8.0 20.9 0.00 0.00 0.00 91 1016.2
20260508055416 6 50 4.8 17.7 0.00 0.00 0.00 92 1016.1
20260508054912 6 85 1.6 14.5 0.00 0.00 0.00 92 1016.2
20260508054410 6 27 16.1 25.7 0.00 0.00 0.00 92 1016.3
20260508053906 6 47 4.8 9.7 0.00 0.00 0.00 93 1016.3
20260508053404 6 64 3.2 22.5 0.00 0.00 0.00 94 1016.1
20260508052901 6 70 14.5 24.1 0.00 0.00 0.00 94 1016.1
20260508052359 6 45 6.4 17.7 0.00 0.00 0.00 94 1016.1
20260508051854 6 70 11.3 24.1 0.00 0.00 0.00 95 1016.0
20260508051350 6 61 4.8 16.1 0.00 0.00 0.00 95 1016.1
20260508050846 6 55 9.7 14.5 0.00 0.00 0.00 95 1016.1
20260508050344 6 73 9.7 20.9 0.00 0.00 0.00 95 1016.0
20260508045839 6 63 1.6 11.3 0.00 0.00 0.00 96 1016.0
20260508045337 6 66 6.4 16.1 0.00 0.00 0.00 96 1015.9
20260508044835 6 46 9.7 14.5 0.00 0.00 0.00 96 1015.8
20260508044331 6 47 6.4 11.3 0.00 0.00 0.00 96 1015.9
20260508043827 6 42 9.7 14.5 0.00 0.00 0.00 96 1016.0
20260508043324 6 63 8.0 16.1 0.00 0.00 0.00 96 1015.9
20260508042821 6 30 6.4 17.7 0.00 0.00 0.00 97 1015.8
20260508042319 6 23 12.9 17.7 0.00 0.00 0.00 97 1015.7
20260508041815 6 55 3.2 17.7 0.00 0.00 0.00 97 1015.8
20260508041312 6 61 4.8 16.1 0.00 0.00 0.00 97 1015.7
20260508040808 6 12 9.7 20.9 0.00 0.00 0.00 97 1015.9
20260508040306 6 28 9.7 12.9 0.00 0.00 0.00 97 1015.7
20260508035803 6 63 3.2 16.1 0.00 0.00 0.00 97 1015.8
20260508035300 6 12 11.3 16.1 0.00 0.00 0.00 97 1015.4
20260508034756 6 43 9.7 16.1 0.00 0.00 0.00 97 1015.5
20260508034254 6 49 6.4 16.1 0.00 0.00 0.00 97 1015.5
20260508033751 6 74 4.8 12.9 0.00 0.00 0.00 97 1015.3
20260508033249 6 49 6.4 17.7 0.00 0.00 0.00 97 1015.4
20260508032746 6 70 4.8 14.5 0.00 0.00 0.00 97 1015.4
20260508032243 6 53 9.7 17.7 0.00 0.00 0.00 97 1015.4
20260508031740 6 46 1.6 12.9 0.00 0.00 0.00 97 1015.4
20260508031236 6 57 8.0 16.1 0.00 0.00 0.00 97 1015.3
20260508030733 6 62 4.8 14.5 0.00 0.00 0.00 97 1015.4
20260508030230 6 27 4.8 11.3 0.00 0.00 0.00 97 1015.4
20260508025727 6 61 11.3 16.1 0.00 0.00 0.00 97 1015.3
20260508025224 7 33 3.2 12.9 0.00 0.00 0.00 97 1015.2
20260508024720 7 26 8.0 14.5 0.00 0.00 0.00 97 1015.0
20260508024217 7 54 4.8 9.7 0.00 0.00 0.00 97 1015.2
20260508023713 7 48 3.2 9.7 0.00 0.00 0.00 97 1015.0
20260508023211 7 75 3.2 11.3 0.00 0.00 0.00 96 1015.1
20260508022707 7 49 4.8 12.9 0.00 0.00 0.00 97 1015.0
20260508022204 7 57 4.8 12.9 0.00 0.00 0.00 96 1015.0
20260508021700 7 74 4.8 16.1 0.00 0.00 0.00 97 1015.1
20260508021155 7 53 3.2 9.7 0.00 0.00 0.00 96 1015.0
20260508020654 7 342 6.4 6.4 0.00 0.00 0.00 96 1015.1
20260508020151 7 71 4.8 12.9 0.00 0.00 0.00 96 1015.1
20260508015648 7 30 9.7 16.1 0.00 0.00 0.00 96 1015.0
20260508015145 7 73 4.8 6.4 0.00 0.00 0.00 96 1014.8
20260508014641 7 66 3.2 9.7 0.00 0.00 0.00 96 1014.9
20260508014137 7 13 3.2 11.3 0.00 0.00 0.00 96 1014.8
20260508013634 7 38 6.4 11.3 0.00 0.00 0.00 96 1015.0
20260508013131 7 38 8.0 9.7 0.00 0.00 0.00 96 1015.1
20260508012628 7 42 4.8 16.1 0.00 0.00 0.00 96 1014.8
20260508012125 7 61 6.4 12.9 0.00 0.00 0.00 96 1014.7
20260508011624 7 95 6.4 11.3 0.00 0.00 0.00 96 1014.8
20260508011121 7 74 4.8 9.7 0.00 0.00 0.00 96 1014.9
20260508010617 7 21 6.4 11.3 0.00 0.00 0.00 96 1014.8
20260508010115 7 20 6.4 14.5 0.00 0.00 0.00 96 1015.0
20260508005611 7 49 8.0 14.5 0.00 0.00 0.00 96 1014.8
20260508005108 7 357 3.2 9.7 0.00 0.00 0.00 96 1014.9
20260508004604 7 53 3.2 9.7 0.00 0.00 0.00 96 1014.9
20260508004101 7 76 4.8 12.9 0.00 0.00 0.00 96 1015.0
20260508003557 7 16 6.4 14.5 0.00 0.00 0.00 96 1014.9
20260508003055 7 40 4.8 6.4 0.00 0.00 0.00 96 1014.8
20260508002551 7 55 1.6 11.3 0.00 0.00 0.00 95 1015.0
20260508002049 7 86 8.0 9.7 0.00 0.00 0.00 95 1015.1
20260508001544 7 31 4.8 4.8 0.00 0.00 0.00 95 1014.9
20260508001040 7 62 6.4 11.3 0.00 0.00 0.00 95 1015.0
20260508000536 7 26 4.8 6.4 0.00 0.00 0.00 95 1014.9
20260508000034 7 86 6.4 9.7 0.00 0.00 0.00 95 1014.8
20260507235531 7 62 4.8 9.7 0.00 0.00 0.00 95 1014.7
20260507235028 7 66 1.6 9.7 0.00 0.00 0.00 95 1014.6
20260507234524 7 70 1.6 11.3 0.00 0.00 0.00 95 1014.6
20260507234021 7 72 4.8 14.5 0.00 0.00 0.00 95 1014.7
20260507233518 7 58 1.6 4.8 0.00 0.00 0.00 95 1014.2
20260507233017 7 54 6.4 11.3 0.00 0.00 0.00 95 1014.5
20260507232512 7 65 8.0 14.5 0.00 0.00 0.00 95 1014.4
20260507232010 7 83 1.6 4.8 0.00 0.00 0.00 95 1014.4
20260507231506 7 51 4.8 4.8 0.00 0.00 0.00 95 1014.7
20260507231003 7 39 6.4 11.3 0.00 0.00 0.00 95 1014.4
20260507230500 8 58 1.6 11.3 0.00 0.00 0.00 94 1014.4
20260507225955 8 51 4.8 9.7 0.00 0.00 0.00 95 1014.6
20260507225452 8 43 4.8 11.3 0.00 0.00 0.00 94 1014.7
20260507224948 8 47 4.8 9.7 0.00 0.00 0.00 94 1014.5
20260507224444 8 84 3.2 11.3 0.00 0.00 0.00 94 1014.4
20260507223941 8 55 3.2 11.3 0.00 0.00 0.00 94 1014.4
20260507223437 8 20 4.8 9.7 0.00 0.00 0.00 94 1014.2
20260507222934 8 37 6.4 11.3 0.00 0.00 0.00 94 1014.2
20260507222431 8 78 1.6 9.7 0.00 0.00 0.00 94 1014.1
20260507221927 8 63 3.2 9.7 0.00 0.00 0.00 94 1014.4
20260507221424 8 32 9.7 14.5 0.00 0.00 0.00 94 1014.4
20260507220920 8 65 1.6 11.3 0.00 0.00 0.00 94 1014.1
20260507220418 8 62 3.2 9.7 0.00 0.00 0.00 94 1014.1
20260507215914 8 15 6.4 9.7 0.00 0.00 0.00 94 1014.2
20260507215411 8 75 1.6 12.9 0.00 0.00 0.00 94 1014.2
20260507214908 8 65 0.0 3.2 0.00 0.00 0.00 94 1014.1
20260507214406 8 45 9.7 14.5 0.00 0.00 0.00 94 1014.4
20260507213901 8 57 4.8 9.7 0.00 0.00 0.00 94 1014.2
20260507213358 8 68 3.2 9.7 0.00 0.00 0.00 94 1014.4
20260507212855 8 24 4.8 9.7 0.00 0.00 0.00 94 1014.1
20260507212351 8 32 4.8 9.7 0.00 0.00 0.00 94 1014.1
20260507211847 8 64 8.0 14.5 0.00 0.00 0.00 94 1014.1
20260507211344 8 11 8.0 11.3 0.00 0.00 0.00 94 1013.8
20260507210841 8 78 3.2 9.7 0.00 0.00 0.00 94 1013.7
20260507210338 8 33 6.4 12.9 0.00 0.00 0.00 95 1013.8
20260507205834 8 47 12.9 14.5 0.00 0.61 0.61 95 1013.7
20260507205332 8 73 6.4 22.5 0.00 0.61 0.61 95 1013.6
20260507204827 8 35 3.2 6.4 0.00 0.61 0.61 95 1013.5
20260507204325 8 47 6.4 14.5 0.00 0.61 0.61 95 1013.4
20260507203823 8 28 4.8 16.1 0.00 0.61 0.61 95 1013.5
20260507203321 8 41 6.4 11.3 0.00 0.61 0.61 95 1013.5
20260507202816 8 52 1.6 9.7 0.00 0.61 0.61 95 1013.5
20260507202313 8 49 4.8 17.7 0.00 0.61 0.61 95 1013.4
20260507201808 8 50 3.2 3.2 0.00 0.61 0.61 95 1013.3
20260507201305 8 36 6.4 9.7 0.00 0.61 0.61 95 1013.2
20260507200801 8 38 3.2 6.4 0.00 0.61 0.61 95 1013.3
20260507200257 8 2 6.4 9.7 0.00 0.61 0.61 95 1013.3
20260507195753 8 27 4.8 11.3 0.00 0.61 0.61 95 1013.1
20260507195251 8 44 6.4 12.9 0.00 0.61 0.61 95 1013.2
20260507194748 8 5 3.2 12.9 0.00 0.61 0.61 95 1013.4
20260507194244 8 61 6.4 11.3 0.00 0.61 0.61 95 1013.2
20260507193740 8 66 4.8 11.3 0.00 0.61 0.61 95 1013.1
20260507193237 8 52 3.2 9.7 0.00 0.61 0.61 95 1013.1
20260507192733 8 48 3.2 6.4 0.00 0.61 0.61 95 1013.0
20260507192230 8 94 3.2 12.9 0.00 0.61 0.61 95 1012.9
20260507191726 8 10 4.8 11.3 0.00 0.61 0.61 95 1012.7
20260507191223 8 357 6.4 12.9 0.00 0.61 0.61 95 1012.7
20260507190720 8 49 4.8 9.7 0.00 0.61 0.61 95 1012.7
20260507190219 8 39 4.8 12.9 0.00 0.61 0.61 95 1012.6
20260507185717 8 26 4.8 12.9 0.00 0.61 0.61 95 1012.7
20260507185213 8 338 9.7 12.9 0.00 0.61 0.61 95 1012.4
20260507184711 8 76 1.6 6.4 0.00 0.61 0.61 95 1012.4
20260507184209 8 49 3.2 4.8 0.00 0.61 0.61 95 1012.5
20260507183705 8 21 6.4 14.5 0.00 0.61 0.61 95 1012.5
20260507183202 9 56 4.8 12.9 0.00 0.61 0.61 95 1012.5
20260507182659 9 0 4.8 9.7 0.00 0.61 0.61 95 1012.4
20260507182149 9 23 4.8 6.4 0.00 0.61 0.61 95 1012.3
20260507181646 9 9 1.6 9.7 0.00 0.61 0.61 95 1012.3
20260507181142 9 17 3.2 6.4 0.00 0.61 0.61 95 1012.3
20260507180638 9 7 8.0 12.9 0.00 0.61 0.61 95 1012.0
20260507180136 9 86 0.0 12.9 0.00 0.61 0.61 95 1012.2
20260507175631 9 16 4.8 12.9 0.00 0.61 0.61 95 1012.1
20260507175129 10 51 9.7 20.9 0.00 0.61 0.61 95 1012.1
20260507174626 10 0 4.8 11.3 0.00 0.61 0.61 95 1012.2
20260507174124 10 298 4.8 6.4 0.00 0.61 0.61 95 1012.1
20260507173621 10 45 8.0 11.3 0.00 0.61 0.61 95 1011.9
20260507173118 10 56 1.6 9.7 0.00 0.61 0.61 95 1012.1
20260507172613 10 83 4.8 9.7 0.00 0.61 0.61 95 1012.0
20260507172111 10 31 8.0 12.9 0.00 0.61 0.61 95 1011.9
20260507171606 10 295 9.7 11.3 0.00 0.61 0.61 94 1011.8
20260507171103 10 31 4.8 12.9 0.00 0.61 0.61 94 1011.5
20260507170600 10 69 3.2 11.3 0.00 0.61 0.61 94 1011.6
20260507170057 10 66 6.4 11.3 0.00 0.61 0.61 94 1011.6
20260507165552 10 349 6.4 9.7 0.00 0.61 0.61 94 1011.5
20260507165049 10 76 3.2 6.4 0.00 0.61 0.61 94 1011.5
20260507164546 10 9 6.4 11.3 0.00 0.61 0.61 94 1011.4
20260507164043 10 40 6.4 12.9 0.00 0.61 0.61 94 1011.2
20260507163540 10 93 3.2 11.3 0.00 0.61 0.61 94 1011.3
20260507163038 10 29 8.0 12.9 0.00 0.61 0.61 94 1011.0
20260507162538 10 341 6.4 11.3 0.00 0.61 0.61 93 1011.0
20260507162035 10 294 6.4 11.3 0.00 0.61 0.61 93 1011.0
20260507161532 10 4 4.8 16.1 0.00 0.61 0.61 93 1011.1
20260507161028 10 312 8.0 17.7 0.00 0.61 0.61 93 1011.0
20260507160524 10 320 6.4 17.7 0.00 0.61 0.61 93 1011.0
20260507160021 11 3 6.4 17.7 0.00 0.61 0.61 92 1010.9
20260507155516 11 305 9.7 14.5 0.00 0.61 0.61 92 1011.0
20260507155014 11 305 14.5 16.1 0.00 0.61 0.61 92 1011.0
20260507154510 11 280 11.3 12.9 0.00 0.61 0.61 92 1011.1
20260507154009 11 275 4.8 14.5 0.00 0.61 0.61 91 1011.0
20260507153504 11 287 8.0 16.1 0.00 0.61 0.61 91 1011.0
20260507153000 11 275 11.3 14.5 0.00 0.61 0.61 91 1011.0
20260507152456 11 276 14.5 17.7 0.00 0.61 0.61 90 1010.8
20260507151953 12 306 9.7 16.1 0.00 0.61 0.61 89 1010.5
20260507151449 12 317 12.9 17.7 0.00 0.61 0.61 89 1010.5
20260507150946 12 301 9.7 14.5 0.00 0.61 0.61 89 1010.6
20260507150443 12 315 8.0 14.5 0.00 0.61 0.61 88 1010.5
20260507145939 13 351 14.5 16.1 0.00 0.61 0.61 86 1010.5
20260507145435 14 350 14.5 16.1 0.00 0.61 0.61 85 1010.4
20260507144932 14 327 6.4 11.3 0.00 0.61 0.61 85 1010.4
20260507144429 15 323 3.2 14.5 0.00 0.61 0.61 84 1010.2
20260507143926 15 301 9.7 12.9 0.00 0.61 0.61 83 1010.1
20260507143424 15 324 6.4 11.3 0.00 0.61 0.61 82 1010.2
20260507142920 15 343 3.2 14.5 0.00 0.61 0.61 82 1010.1
20260507142416 15 314 6.4 11.3 0.00 0.61 0.61 82 1009.8
20260507141913 15 67 6.4 11.3 0.00 0.61 0.61 82 1009.6
20260507141409 16 309 8.0 14.5 0.00 0.61 0.61 81 1009.6
20260507140906 16 344 9.7 12.9 0.00 0.61 0.61 80 1009.6
20260507140403 16 39 3.2 16.1 0.00 0.61 0.61 81 1009.5
20260507135901 16 332 6.4 9.7 0.00 0.61 0.61 81 1009.7
20260507135357 16 331 9.7 11.3 0.00 0.61 0.61 80 1009.8
20260507134855 16 306 6.4 9.7 0.00 0.61 0.61 81 1009.7
20260507134350 16 298 6.4 9.7 0.00 0.61 0.61 80 1009.6
20260507133847 16 19 6.4 9.7 0.00 0.61 0.61 81 1009.4
20260507133342 16 333 6.4 11.3 0.00 0.61 0.61 79 1009.5
20260507132841 17 22 4.8 12.9 0.00 0.61 0.61 78 1009.4
20260507132337 17 347 3.2 11.3 0.00 0.61 0.61 78 1009.4